Location: Unspecified
(42.3650°N, 71.1030°W)
Time: 16:25:20
(UTC+00:00)

S-56A Canister/Altair - Pass Details

Date: 27 June 2024
Orbit: 638 x 2487 km, 38.9° (Epoch: 20 July)

Event Time Altitude Azimuth Distance (km) Brightness Sun altitude
Rises 05:06:43 0° 281° (W) 4,814 11.7 -24.2°
Reaches altitude 10° 05:09:37 10° 277° (W) 4,051 11.2 -24.1°
Maximum altitude 05:20:29 53° 205° (SSW) 2,578 9.7 -23.9°
Drops below altitude 10° 05:34:32 10° 135° (SE) 5,130 11.4 -23.4°
Sets 05:38:44 0° 131° (SE) 6,150 11.9 -23.3°
